[[{"header":{"parameterUnit":"m.s-1","parameterCategory":1,"la1":30.2991,"la2":30.254,"lo1":-89.0895,"lo2":-89.0444,"dy":0.0017,"dx":0.0017,"nx":28,"ny":28,"refTime":"2023-09-25T03:00:00:Z","depth":0,"parameterNumber":2,"parameterNumberName":"U-component_of_WINDS"},"data":[0,0,0,0,0,0,0,0,0,0,0,0,0,0,0,0,0,0,0,0,0,0,0,0,0,0,0,0,0,0,0,0,0,0,0,0,0,0,0,0,0,0,0,0,0,0,0,0,0,0,0,0,0,0,0,0,0,0,1.1042,1.1043,0,1.1073,1.1074,1.1074,1.1066,1.1065,1.1065,1.1064,1.1096,1.1098,1.1099,0,0,0,0,0,0,0,0,0,0,0,0,0,1.0974,1.0975,1.1042,1.1043,1.1043,1.1073,1.1074,1.1074,1.1066,1.1065,1.1065,1.1064,1.1096,1.1098,1.1099,0,0,0,0,0,0,0,0,0,0,0,0,0,1.1004,1.0975,1.1042,1.1043,1.1043,1.1073,1.1074,1.1074,1.1066,1.1065,1.1064,1.1063,1.1095,1.1097,1.11,1.1132,0,0,1.1106,1.1107,0,0,0,0,0,0,0,0,1.1002,1.1007,1.1042,1.1043,1.1043,1.1065,1.1062,1.1094,1.1066,1.1057,1.1064,1.1063,1.1087,1.1089,1.1097,1.1133,1.1135,1.1106,1.1108,1.1109,1.1109,0,0,0,0,0,0,0,1.1,1.1005,1.1055,1.1043,1.1043,1.1041,1.1044,1.1068,1.1077,1.1058,1.1058,1.1061,1.1087,1.1095,1.1098,1.1135,1.1106,1.1108,1.111,1.111,1.1195,1.1196,0,0,0,0,0,0,1.0998,1.1004,1.1054,1.1056,1.102,1.1043,1.1046,1.1059,1.1077,1.1078,1.1062,1.1061,1.1092,1.1096,1.1099,1.1136,1.1109,1.1111,1.1112,1.1194,1.1195,1.1196,0,0,0,0,0,0,1.0996,1.1002,1.1052,1.1029,1.1035,1.1045,1.1059,1.106,1.1068,1.108,1.1081,1.1069,1.1092,1.1096,1.1123,1.1137,1.1112,1.1114,1.1193,1.1195,1.1196,1.121,0,0,0,0,0,0,1.0995,1.1002,1.1015,1.103,1.1037,1.1076,1.106,1.1061,1.1072,1.1071,1.1087,1.1089,1.1091,1.112,1.1125,1.1139,1.1115,1.1192,1.1194,1.1195,1.1208,1.1212,1.1215,0,0,0,0,0,1.0992,1.1018,1.1016,1.1022,1.1053,1.1077,1.1081,1.1083,1.1073,1.1086,1.1092,1.1088,1.1134,1.1122,1.1128,1.1143,1.1191,1.1193,1.1195,1.1207,1.1211,1.1215,0,0,0,0,0,0,1.1006,1.1021,1.1018,1.105,1.1062,1.1076,1.1091,1.1088,1.1104,1.1102,1.1104,1.1108,1.1135,1.1142,1.1128,1.1174,1.1161,1.1165,1.1168,1.1172,1.1175,1.1172,1.1117,0,0,0,0,0,1.1013,1.1031,1.1043,1.107,1.1076,1.1083,1.1093,1.1094,1.1107,1.1112,1.1121,1.1133,1.115,1.1162,1.1179,1.1209,1.1212,1.1223,1.1226,1.1228,1.1231,1.1245,1.1249,1.1203,1.1203,1.1203,0,0,1.1027,1.1037,1.1049,1.1073,1.1082,1.11,1.1087,1.1108,1.112,1.1115,1.114,1.1147,1.1161,1.1189,1.1202,1.1196,1.1244,1.1231,1.1233,1.1234,1.1248,1.1252,1.1256,1.1205,1.1205,1.1204,0,0,1.1062,1.1072,1.1094,1.1103,1.1118,1.1121,1.1127,1.114,1.1144,1.1169,1.1165,1.118,1.121,1.122,1.1228,1.1263,1.1259,1.1269,1.1285,1.1299,1.1302,1.1306,1.1316,1.132,1.1271,1.1272,1.1272,0,1.1077,1.1105,1.1106,1.1126,1.1135,1.113,1.1152,1.1161,1.118,1.1187,1.118,1.1215,1.1225,1.1254,1.1262,1.127,1.1275,1.1267,1.1302,1.1305,1.1308,1.1318,1.1322,1.1272,1.1272,1.1272,1.1272,0,1.1122,1.1141,1.1157,1.1174,1.1186,1.1207,1.121,1.1222,1.122,1.1224,1.1249,1.1259,1.1277,1.1284,1.1284,1.1312,1.1307,1.1301,1.1288,1.1313,1.1322,1.1327,1.1274,1.1274,1.1273,1.1273,0,0,1.1168,1.1183,1.1189,1.1195,1.121,1.1224,1.1243,1.126,1.1268,1.1281,1.1296,1.1321,1.1314,1.1324,1.1325,1.1337,1.1361,1.1329,1.1329,1.1333,1.139,1.1394,1.1398,1.1358,1.1359,1.136,1.1388,0,1.1202,1.1236,1.1236,1.1267,1.1283,1.1277,1.1294,1.1304,1.1308,1.1321,1.1326,1.1342,1.1333,1.1338,1.135,1.1355,1.1372,1.1354,1.1371,1.1372,1.1367,1.1403,1.1408,1.1435,1.1392,1.1393,1.1393,0,1.1247,1.1259,1.1291,1.13,1.1307,1.1322,1.1335,1.1349,1.1359,1.1361,1.1371,1.1369,1.1387,1.1374,1.1399,1.1386,1.1393,1.1396,1.1397,1.1398,1.1383,1.1404,1.1443,1.1447,1.1399,1.1399,1.1398,0,1.1274,1.1299,1.1321,1.1327,1.1338,1.1349,1.1354,1.1363,1.1372,1.1384,1.1389,1.1403,1.1411,1.1421,1.1422,1.1413,1.1446,1.1434,1.1447,1.1447,1.1454,1.1453,1.1494,1.1461,1.1461,1.1461,1.1461,0,1.1311,1.1331,1.1332,1.1346,1.1366,1.1366,1.1387,1.1391,1.1399,1.1412,1.1409,1.1421,1.1423,1.1435,1.1437,1.1455,1.1459,1.146,1.146,1.146,1.1459,1.1464,1.1461,1.1462,1.1462,1.1461,1.1461,0,1.1345,1.1347,1.137,1.1378,1.1381,1.1396,1.1403,1.1415,1.1417,1.1434,1.1438,1.1442,1.1456,1.1458,1.1476,1.1476,1.1498,1.1497,1.1494,1.1494,1.1506,1.1504,1.155,1.1555,1.152,1.152,1.1521,0,1.1368,1.1383,1.1392,1.14,1.1405,1.1419,1.1427,1.1427,1.1436,1.1447,1.1457,1.1471,1.1482,1.1505,1.1509,1.1521,1.152,1.1534,1.1521,1.152,1.1518,1.1516,1.1517,1.1537,1.1537,1.1538,1.1538,0,1.1408,1.1408,1.142,1.1431,1.1441,1.1451,1.1459,1.1466,1.1467,1.1477,1.1491,1.1499,1.1515,1.1528,1.154,1.1545,1.1541,1.1542,1.1545,1.1545,1.1542,1.1541,1.15,1.1541,1.154,1.154,1.154,1.154,1.1436,1.1448,1.1455,1.1468,1.1474,1.1482,1.1492,1.1495,1.1507,1.152,1.1519,1.1534,1.1541,1.1557,1.1562,1.1573,1.1568,1.1574,1.1575,1.1576,1.1576,1.1541,1.1576,1.1576,1.1576,1.1576,1.1576,0,1.1474,1.1478,1.149,1.1501,1.1511,1.1505,1.1514,1.1522,1.1535,1.1543,1.1553,1.1567,1.1579,1.1584,1.1595,1.1603,1.1601,1.1606,1.1605,1.1605,1.1581,1.1576,1.1607,1.1607,1.1607,1.1607,1.1607,1.1607,1.1495,1.1513,1.1513,1.1534,1.1538,1.1551,1.1556,1.1563,1.1568,1.1585,1.1594,1.1597,1.1603,1.1614,1.1624,1.1625,1.1629,1.1634,1.1634,1.1611,1.1608,1.1605,1.16,1.1635,1.1635,1.1657,1.1657,1.1658]},{"header":{"parameterUnit":"m.s-1","parameterCategory":1,"la1":30.2991,"la2":30.254,"lo1":-89.0895,"lo2":-89.0444,"dy":0.0017,"dx":0.0017,"nx":28,"ny":28,"refTime":"2023-09-25T03:00:00:Z","depth":0,"parameterNumber":3,"parameterNumberName":"V-component_of_WINDS"},"data":[0,0,0,0,0,0,0,0,0,0,0,0,0,0,0,0,0,0,0,0,0,0,0,0,0,0,0,0,0,0,0,0,0,0,0,0,0,0,0,0,0,0,0,0,0,0,0,0,0,0,0,0,0,0,0,0,0,0,3.318,3.318,0,3.3144,3.3144,3.3143,3.3078,3.3077,3.3076,3.3074,3.3037,3.3037,3.3037,0,0,0,0,0,0,0,0,0,0,0,0,0,3.3192,3.3192,3.318,3.318,3.3179,3.3144,3.3144,3.3143,3.3078,3.3077,3.3075,3.3074,3.3037,3.3037,3.3037,0,0,0,0,0,0,0,0,0,0,0,0,0,3.3175,3.3192,3.318,3.3143,3.3139,3.3144,3.3144,3.3143,3.3079,3.3077,3.3075,3.3073,3.3037,3.3037,3.3037,3.3076,0,0,3.3038,3.3038,0,0,0,0,0,0,0,0,3.3176,3.3174,3.3149,3.3145,3.3141,3.3114,3.3134,3.312,3.3079,3.3102,3.3074,3.3072,3.3064,3.3062,3.3059,3.3074,3.3073,3.3038,3.3038,3.3038,3.3038,0,0,0,0,0,0,0,3.3177,3.3176,3.3166,3.3149,3.3144,3.3127,3.3123,3.3131,3.3094,3.31,3.3095,3.3091,3.3062,3.3059,3.3058,3.3072,3.3038,3.3038,3.3038,3.3039,3.3114,3.3116,0,0,0,0,0,0,3.3184,3.3177,3.3167,3.3165,3.3154,3.3129,3.3124,3.3124,3.3093,3.3087,3.3093,3.3088,3.306,3.3058,3.3056,3.3097,3.3038,3.3039,3.3039,3.3112,3.3114,3.3116,0,0,0,0,0,0,3.3184,3.3184,3.3169,3.317,3.3166,3.313,3.3132,3.3125,3.3122,3.3088,3.3081,3.3097,3.3058,3.3056,3.3071,3.3095,3.3039,3.3039,3.311,3.3113,3.3115,3.318,0,0,0,0,0,0,3.3185,3.3184,3.3199,3.317,3.3167,3.3184,3.3133,3.3125,3.3123,3.3116,3.3091,3.3085,3.3056,3.3071,3.3071,3.3094,3.3039,3.3108,3.3111,3.3114,3.3176,3.3185,3.3193,0,0,0,0,0,3.3186,3.3219,3.32,3.3199,3.3184,3.3186,3.3184,3.3151,3.3125,3.3139,3.3117,3.3085,3.3093,3.3073,3.3073,3.3096,3.3106,3.311,3.3114,3.3172,3.3183,3.3193,0,0,0,0,0,0,3.3252,3.3215,3.3193,3.3219,3.3206,3.3175,3.3192,3.3164,3.3158,3.3153,3.3112,3.3107,3.3126,3.3113,3.3092,3.313,3.3094,3.3098,3.3138,3.3149,3.3157,3.3159,3.3039,0,0,0,0,0,3.327,3.3274,3.3242,3.3267,3.3262,3.3228,3.3228,3.3203,3.3188,3.3183,3.3162,3.3149,3.3147,3.3148,3.3145,3.3174,3.3166,3.319,3.3199,3.3206,3.3209,3.3221,3.3231,3.313,3.313,3.313,0,0,3.3306,3.3286,3.3292,3.328,3.3267,3.3272,3.3224,3.3232,3.3235,3.3184,3.3196,3.3181,3.3163,3.3184,3.3193,3.3174,3.3236,3.3211,3.3217,3.3217,3.3226,3.3236,3.3244,3.3133,3.3132,3.3132,0,0,3.3374,3.3361,3.3379,3.3367,3.3348,3.3325,3.333,3.3303,3.329,3.3302,3.3263,3.3266,3.3266,3.3254,3.3248,3.331,3.328,3.3311,3.3354,3.3366,3.3374,3.3381,3.3401,3.3408,3.3315,3.3315,3.3315,0,3.3421,3.3427,3.3392,3.3402,3.3397,3.3351,3.3368,3.3359,3.334,3.3337,3.3316,3.3313,3.3298,3.3315,3.333,3.3328,3.333,3.3312,3.3376,3.3382,3.3388,3.3406,3.3414,3.3318,3.3318,3.3318,3.3317,0,3.3485,3.349,3.3507,3.349,3.3487,3.3501,3.3467,3.3468,3.3444,3.3423,3.3434,3.3415,3.3406,3.3409,3.3386,3.3422,3.341,3.3383,3.3346,3.3402,3.3418,3.3425,3.3324,3.3322,3.3321,3.332,0,0,3.3593,3.3555,3.3562,3.3552,3.3528,3.3531,3.3542,3.3533,3.3534,3.3523,3.353,3.353,3.3504,3.3498,3.3473,3.3484,3.3531,3.3455,3.3454,3.3468,3.3567,3.3585,3.3594,3.3511,3.3513,3.3514,3.3567,0,3.3654,3.3671,3.3639,3.3663,3.3666,3.3622,3.3631,3.3616,3.3597,3.3596,3.3575,3.3574,3.3542,3.3537,3.3546,3.3523,3.355,3.3519,3.3516,3.3516,3.3519,3.3603,3.3623,3.3675,3.3574,3.3575,3.3576,0,3.3728,3.3719,3.3743,3.3715,3.3715,3.3724,3.3712,3.3713,3.3695,3.368,3.3672,3.3642,3.365,3.3615,3.3623,3.3603,3.36,3.3589,3.359,3.3587,3.3548,3.36,3.3691,3.3698,3.3586,3.3585,3.3584,0,3.3801,3.3796,3.3809,3.3802,3.3771,3.3778,3.3765,3.3745,3.3741,3.3731,3.3728,3.3719,3.3714,3.3708,3.3676,3.3654,3.3687,3.3651,3.3674,3.3674,3.3681,3.3681,3.377,3.3683,3.3683,3.3683,3.3683,0,3.3871,3.3887,3.3841,3.3849,3.3864,3.3828,3.3844,3.3827,3.3809,3.3812,3.3774,3.3778,3.3737,3.3735,3.3711,3.372,3.3719,3.3706,3.3698,3.3708,3.3709,3.3703,3.3698,3.3685,3.3685,3.3684,3.3684,0,3.3955,3.3925,3.3936,3.3905,3.3897,3.391,3.3883,3.3888,3.3867,3.387,3.3869,3.3835,3.3831,3.3799,3.3788,3.3771,3.379,3.3777,3.3795,3.379,3.3814,3.3812,3.3902,3.3911,3.382,3.3821,3.3822,0,3.4,3.4011,3.3981,3.398,3.3969,3.3969,3.3964,3.3928,3.3925,3.3904,3.3912,3.3905,3.3897,3.3893,3.3866,3.3857,3.3842,3.3874,3.384,3.3849,3.384,3.3838,3.3838,3.3881,3.3882,3.3883,3.3884,0,3.4083,3.4068,3.4063,3.4053,3.4049,3.4039,3.4027,3.4028,3.3988,3.3986,3.3982,3.3976,3.3964,3.3957,3.3943,3.3929,3.3899,3.3895,3.3899,3.3908,3.3917,3.391,3.3813,3.3893,3.3892,3.3891,3.3891,3.389,3.4148,3.4154,3.4134,3.4129,3.4116,3.4106,3.4108,3.4086,3.4082,3.407,3.4049,3.4047,3.4027,3.4005,3.3993,3.399,3.3973,3.398,3.3981,3.3983,3.3987,3.392,3.3988,3.3987,3.3987,3.3987,3.3987,0,3.4226,3.4211,3.4207,3.4191,3.4187,3.416,3.4145,3.4143,3.4142,3.4126,3.4119,3.4113,3.4105,3.4078,3.4067,3.407,3.4056,3.4068,3.4066,3.4063,3.4004,3.4,3.4079,3.4079,3.4079,3.4079,3.4079,3.4079,3.4267,3.4276,3.4258,3.426,3.4244,3.4242,3.4235,3.4224,3.4211,3.4206,3.4199,3.4182,3.416,3.4148,3.4139,3.4131,3.4128,3.4144,3.4131,3.4076,3.4067,3.4059,3.4055,3.4144,3.4144,3.419,3.419,3.4191]}]]